Location: Sungai Jaoh
(2.9167°N, 113.9167°E)
Time: 02:00:44
(UTC+00:00)

Envisat - Pass Details

Date: 29 September 2021
Orbit: 764 x 766 km, 98.2° (Epoch: 17 October)

Event Time Altitude Azimuth Distance (km) Brightness Sun altitude
Rises 20:03:44 0° 48° (NE) 3,216 6.8 -32.8°
Reaches altitude 10° 20:07:26 10° 76° (ENE) 2,293 6.3 -31.8°
Maximum altitude 20:09:34 13° 102° (ESE) 2,113 6.1 -31.3°
Drops below altitude 10° 20:11:42 10° 127° (SE) 2,296 6.1 -30.8°
Sets 20:15:23 0° 155° (SSE) 3,225 6.6 -29.9°
